Regional Weather Roundup
Issued by NWS

Home | Current Version | Previous Version | Graphics & Text | Print | Product List | Glossary On
Versions: 1 2 3 4 5 6 7 8 9 10 11 12 13 14 15 16 17 18 19 20 21 22 23 24 25 26 27 28 29 30 31 32 33 34 35 36 37 38 39 40 41 42 43 44 45 46 47 48 49 50
000
ASUS44 KMEG 061210
RWRTN
TENNESSEE HOURLY STATE WEATHER ROUNDUP
NATIONAL WEATHER SERVICE MEMPHIS TN
700 AM CDT MON JUL 06 2015

TNZ002-004-019-021-049-052-054-088>092-061300-
WEST TENNESSEE

CITY           SKY/WX    TMP DP  RH WIND       PRES   REMARKS
MEMPHIS INTL   PTSUNNY   72  70  94 S8        30.13R
NWS MEMPHIS      N/A     70 N/A N/A MISG        N/A
JACKSON        MOSUNNY   70  68  93 SW3       30.13R
DYERSBURG        N/A    N/A N/A N/A MISG        N/A
PARIS          PTSUNNY   70  68  94 S3        30.13R
LEXINGTON      CLOUDY    68  68 100 CALM      30.12S VSB 0
$$

TNZ008-025-027-028-033-062-065-066-061300-
NORTH MIDDLE TENNESSEE

CITY           SKY/WX    TMP DP  RH WIND       PRES   REMARKS
NASHVILLE      MOSUNNY   71  71 100 CALM      30.15R
CLARKSVILLE    CLOUDY    72  70  93 SW7       30.12R
SMYRNA         SUNNY     70  69  96 CALM      30.16R FOG
COOKEVILLE     CLOUDY    72  72 100 CALM      30.16R VSB 1
CROSSVILLE     PTSUNNY   71  68  90 W3        30.20R FOG
$$

TNZ061-075-076-078-094-096-097-061300-
SOUTH MIDDLE TENNESSEE

CITY           SKY/WX    TMP DP  RH WIND       PRES   REMARKS
FAYETTEVILLE   CLOUDY    70  68  94 W3        30.17R VSB 1/2
TULLAHOMA      CLOUDY    66  66 100 CALM      30.18R VSB 1/4
WINCHESTER     CLOUDY    68  66  94 CALM      30.17R
MCMINNVILLE    MOSUNNY   72  72 100 VRB3      30.17R
COLUMBIA       CLOUDY    72  72 100 SW5       30.15R
SHELBYVILLE    PTSUNNY   70  68  94 CALM        N/A
$$

TNZ017-018-042-046-047-061300-
NORTHEAST TENNESSEE

CITY           SKY/WX    TMP DP  RH WIND       PRES   REMARKS
TRI CITIES     CLOUDY    68  66  93 CALM      30.17R
ELIZABETHTON   CLOUDY    66  64  94 CALM      30.17R
$$

TNZ012-013-036-069-073-074-061300-
CENTRAL EAST TENNESSEE

CITY           SKY/WX    TMP DP  RH WIND       PRES   REMARKS
KNOXVILLE      CLOUDY    69  66  90 SW5       30.16R
OAK RIDGE      CLOUDY    71  68  90 CALM      30.17R
GATLINBURG     PTSUNNY   66  64  94 CALM      30.16R
MORRISTOWN     MOSUNNY   70  70 100 W7        30.18R
$$

TNZ083-085-099-061300-
SOUTHEAST TENNESSEE

CITY           SKY/WX    TMP DP  RH WIND       PRES   REMARKS
CHATTANOOGA    PTSUNNY   70  68  93 CALM      30.16R
$$

SKY/WX REPORTED AS FAIR MEANS FEW OR NO CLOUDS BELOW
12 THOUSAND FEET.




USA.gov is the U.S. government's official web portal to all federal, state and local government web resources and services.